Regional Weather Roundup
Issued by NWS Green Bay, WI

Home | Current Version | Previous Version | Graphics & Text | Print | Product List | Glossary Off
Versions: 1 2 3 4 5 6 7 8 9 10 11 12 13 14 15 16 17 18 19 20 21 22 23 24 25 26 27 28 29 30 31 32 33 34 35 36 37 38 39 40 41 42 43 44 45 46 47 48 49 50

000
ASUS43 KGRB 041811
RWRGRB

NORTH-CENTRAL AND NORTHEAST WISCONSIN REGIONAL WEATHER ROUNDUP
NATIONAL WEATHER SERVICE GREEN BAY WI
1200 PM CST SUN DEC 04 2016

WIZ005-009-010>012-018-019-041900-
NORTH CENTRAL WISCONSIN

CITY           SKY/WX    TMP DP  RH WIND       PRES   REMARKS
IRONWOOD       LGT SNOW  31  27  85 S10       29.88F FOG
MANITOWISH WTR LGT SNOW  28  28 100 SE6       29.88F
ARBOR VITAE    LGT SNOW  32  30  92 SE8       29.89F
EAGLE RIVER    LGT SNOW  29  26  88 SE7       29.91F
LAND O LAKES   LGT SNOW  29  27  90 S9        29.92F
RHINELANDER    LGT SNOW  29  27  92 VRB7      29.91F VSB 1
PHILLIPS       LGT SNOW  29  28  96 SE8       29.88F
ANTIGO         LGT SNOW  28  27  96 SE10      29.94F
TOMAHAWK       LGT SNOW  29  27  91 SE3       29.91F VSB 1
MERRILL        LGT SNOW  30  28  95 S7        29.94F
$$

WIZ013-073-041900-
NORTHEAST WISCONSIN

CITY           SKY/WX    TMP DP  RH WIND       PRES   REMARKS
IRON MOUNTAIN  LGT SNOW  29  25  85 SE6       29.97F VSB 1
MARINETTE      LGT SNOW  32  30  92 S6        30.03F FOG
OCONTO         CLOUDY    31  30  94 S5        30.03F
$$

WIZ017-030-035>037-045-041900-
CENTRAL WISCONSIN

CITY           SKY/WX    TMP DP  RH WIND       PRES   REMARKS
MEDFORD        MIX PCPN  29  28  94 SE13      29.89F VSB 3/4
WAUSAU         LGT SNOW  29  28  96 SE8       29.93F VSB 3/4
MOSINEE        LGT SNOW  30  30 100 SE14      29.95F VSB 1
MARSHFIELD     HVY SNOW  30  27  88 S13       29.90F VSB 1/4
WISC RAPIDS    SNOW      31  30  96 S9        29.96F VSB 1/2
STEVENS POINT  MIX PCPN  29  28  99 SE8       29.96F VSB 3/4
WAUPACA        LGT SNOW  33  30  91 SE8       29.99F
SHAWANO        LGT RAIN  33  31  92 SE5       30.01F
CLINTONVILLE   LGT SNOW  32  30  93 S6        30.01F
WAUTOMA        LGT SNOW  31  29  92 S13       29.99F FOG
$$

WIZ038-039-048-051-041900-
FOX VALLEY

CITY           SKY/WX    TMP DP  RH WIND       PRES   REMARKS
NWS GREEN BAY  LGT SNOW  32  31  96 S6        30.03S VSB 1
APPLETON       LGT SNOW  30  30 100 S8        30.00F VSB 1
OSHKOSH        SNOW      31  29  92 S6        30.00F VSB 1/4
FOND DU LAC    LGT SNOW  31  28  89 S6        29.99F VSB 3/4
$$

WIZ022-050-052-041900-
EAST CENTRAL WISCONSIN

CITY           SKY/WX    TMP DP  RH WIND       PRES   REMARKS
EPHRAIM        LGT SNOW  30  29  95 SW3       30.01F
WASHINGTON ISL LGT SNOW  32  27  81 SW3       30.03F
STURGEON BAY   LGT SNOW  32  28  86 S3        30.03F FOG
MANITOWOC      LGT SNOW  33  29  85 SW5       30.03F FOG
SHEBOYGAN      LGT SNOW  31  29  92 S3        30.02F VSB 3/4
$$

LMZ563-521-522-541>543-041900-
LAKESHORE

STATION/POSITION TIME  TEMP    WIND        PRES    VSBY  WAVE
                       AIR SEA DIR/SP/G                  HT/PER
                 (UTC) (F)     (DEG/KT/KT) (MB)    (MI)  (FT/S)
SHEBOYGAN LKSHOR 1800   33     170/ 12/ 13 1017.0F
KEWAUNEE LKSHORE 1730   31     200/  4/  5 1016.9F
ALGOMA MARINA    1721          220/  5/  6   N/A
NORTHPORT PIER   1740   33     150/  4/  6 1017.6F
SISTER BAY LKSHO 1723   33     190/ 10/ 12   N/A
CHAMBERS ISLAND  1740   32     150/  2/  5 1016.9F
MENOMINEE LKSHOR 1730   31     180/  9/ 13 1016.4F
$$




USA.gov is the U.S. government's official web portal to all federal, state and local government web resources and services.